[[{"header":{"parameterUnit":"m.s-1","parameterCategory":1,"la1":30.2991,"la2":30.254,"lo1":-89.0895,"lo2":-89.0444,"dy":0.0017,"dx":0.0017,"nx":28,"ny":28,"refTime":"2025-03-14T21:00:00:Z","depth":0,"parameterNumber":2,"parameterNumberName":"U-component_of_WINDS"},"data":[0,0,0,0,0,0,0,0,0,0,0,0,0,0,0,0,0,0,0,0,0,0,0,0,0,0,0,0,0,0,0,0,0,0,0,0,0,0,0,0,0,0,0,0,0,0,0,0,0,0,0,0,0,0,0,0,0,0,6.1898,6.19,0,6.2021,6.2023,6.2024,6.1944,6.194,6.1937,6.1933,6.2059,6.2066,6.2073,0,0,0,0,0,0,0,0,0,0,0,0,0,6.1592,6.1598,6.1898,6.19,6.1901,6.2021,6.2023,6.2024,6.1945,6.194,6.1936,6.1931,6.2057,6.2065,6.2073,0,0,0,0,0,0,0,0,0,0,0,0,0,6.1721,6.16,6.1898,6.1876,6.1875,6.2021,6.2023,6.2025,6.1946,6.194,6.1934,6.1929,6.2054,6.2064,6.2074,6.2249,0,0,6.2106,6.211,0,0,0,0,0,0,0,0,6.1714,6.1732,6.1878,6.1878,6.1877,6.1962,6.1961,6.21,6.1947,6.1919,6.1933,6.1927,6.2031,6.2043,6.2078,6.2255,6.226,6.2107,6.2113,6.2117,6.212,0,0,0,0,0,0,0,6.1705,6.1727,6.1947,6.188,6.188,6.1859,6.1871,6.1987,6.2005,6.1921,6.1915,6.1931,6.203,6.2069,6.2081,6.2262,6.2106,6.2115,6.2122,6.2126,6.2583,6.2589,0,0,0,0,0,0,6.1698,6.172,6.1943,6.195,6.178,6.1869,6.1883,6.194,6.2003,6.2008,6.1936,6.1927,6.2054,6.2069,6.2085,6.229,6.2117,6.2127,6.2133,6.2578,6.2585,6.2591,0,0,0,0,0,0,6.1692,6.1719,6.1938,6.1834,6.186,6.188,6.1945,6.1945,6.1984,6.2014,6.2017,6.1972,6.205,6.2071,6.2208,6.2294,6.2131,6.2141,6.257,6.258,6.2588,6.2705,0,0,0,0,0,0,6.1683,6.1717,6.1784,6.1836,6.1866,6.206,6.1951,6.1952,6.2002,6.1991,6.2049,6.2053,6.2047,6.2193,6.2218,6.2305,6.2149,6.2563,6.2575,6.2585,6.2693,6.2717,6.2737,0,0,0,0,0,6.1673,6.1813,6.1788,6.1815,6.195,6.2065,6.2082,6.2072,6.2009,6.2076,6.2095,6.2052,6.2281,6.2208,6.2235,6.2327,6.2557,6.2571,6.2584,6.2684,6.2712,6.2736,0,0,0,0,0,0,6.1771,6.1819,6.1792,6.1953,6.2006,6.2051,6.2135,6.2103,6.2175,6.2162,6.2147,6.216,6.2303,6.2329,6.2247,6.2497,6.2409,6.2429,6.2475,6.2502,6.2523,6.2514,6.2157,0,0,0,0,0,6.1812,6.1901,6.1938,6.2077,6.2104,6.2116,6.2165,6.2153,6.2206,6.2228,6.2257,6.2311,6.2394,6.245,6.2529,6.2697,6.2707,6.2773,6.2795,6.2812,6.2829,6.2917,6.2946,6.2636,6.2636,6.2636,0,0,6.1896,6.1933,6.1991,6.2097,6.2136,6.2228,6.2135,6.2237,6.2304,6.2244,6.2374,6.2398,6.2456,6.2608,6.2677,6.2634,6.2917,6.283,6.2843,6.2851,6.2934,6.2963,6.2989,6.2645,6.2643,6.2642,0,0,6.2096,6.2135,6.2253,6.2293,6.2353,6.236,6.2388,6.2438,6.2451,6.2582,6.2537,6.2617,6.2763,6.2805,6.2846,6.306,6.3022,6.3086,6.3199,6.3285,6.3309,6.3331,6.3405,6.3432,6.3103,6.3103,6.3104,0,6.2194,6.2331,6.2318,6.2422,6.2469,6.2418,6.2536,6.2577,6.266,6.2693,6.2643,6.2822,6.2858,6.3018,6.307,6.3106,6.3136,6.3079,6.3307,6.3328,6.3348,6.3418,6.3447,6.3111,6.311,6.3109,6.3108,0,6.2446,6.2542,6.263,6.271,6.2767,6.2879,6.2881,6.294,6.2923,6.2934,6.3066,6.3107,6.3192,6.3229,6.3214,6.3387,6.3358,6.3309,6.3219,6.3385,6.3451,6.3478,6.3121,6.3118,6.3116,6.3114,0,0,6.2713,6.2783,6.2815,6.285,6.2911,6.2984,6.3092,6.3175,6.3225,6.3283,6.3372,6.3495,6.3448,6.3494,6.3483,6.3559,6.3722,6.3499,6.35,6.3537,6.3912,6.3948,6.398,6.3697,6.3702,6.3707,6.3907,0,6.2915,6.3103,6.3093,6.3269,6.3356,6.3308,6.3401,6.3448,6.3461,6.3536,6.355,6.3636,6.357,6.3597,6.3669,6.3687,6.3797,6.3672,6.3778,6.3782,6.3763,6.4015,6.4053,6.424,6.3932,6.3937,6.394,0,6.3176,6.3242,6.3427,6.3472,6.3509,6.3593,6.3666,6.3739,6.3791,6.3795,6.3845,6.3821,6.3928,6.3837,6.3984,6.3899,6.3942,6.3957,6.3964,6.3972,6.387,6.4028,6.43,6.4327,6.3981,6.3978,6.3975,0,6.3348,6.3484,6.3611,6.3642,6.37,6.376,6.3787,6.3833,6.3882,6.3946,6.3978,6.4054,6.4095,6.4154,6.415,6.4085,6.4298,6.4208,6.4303,6.4303,6.4349,6.4346,6.463,6.438,6.438,6.4379,6.4379,0,6.3574,6.3688,6.3689,6.3767,6.3893,6.388,6.4005,6.4025,6.4066,6.4146,6.4109,6.4185,6.4176,6.4252,6.425,6.437,6.439,6.4394,6.4392,6.4397,6.4396,6.4423,6.441,6.4387,6.4385,6.4383,6.4382,0,6.3788,6.3793,6.3928,6.3971,6.3984,6.4075,6.4111,6.4184,6.4193,6.4295,6.4318,6.4332,6.442,6.4421,6.4522,6.452,6.4666,6.465,6.4649,6.4645,6.4739,6.4729,6.5049,6.509,6.4815,6.4818,6.482,0,6.393,6.4017,6.4069,6.412,6.415,6.4233,6.4282,6.4273,6.4326,6.439,6.4455,6.4538,6.4604,6.4746,6.4764,6.484,6.4824,6.4931,6.4836,6.4837,6.4823,6.4817,6.4825,6.495,6.4953,6.4955,6.4957,0,6.4182,6.418,6.4253,6.4328,6.4388,6.4446,6.4499,6.4543,6.4538,6.46,6.4688,6.4739,6.4841,6.4923,6.4996,6.5022,6.4989,6.4987,6.5013,6.5018,6.5012,6.5014,6.4697,6.498,6.4978,6.4976,6.4975,6.4974,6.4363,6.4437,6.4484,6.4566,6.4605,6.4656,6.4726,6.4743,6.4816,6.4898,6.4888,6.4985,6.5032,6.5127,6.5159,6.5234,6.5197,6.5235,6.5244,6.5253,6.5262,6.5002,6.5248,6.5247,6.5247,6.5246,6.5246,0,6.4611,6.4639,6.4714,6.479,6.4854,6.4817,6.4873,6.4929,6.5016,6.5063,6.5128,6.5228,6.5307,6.5332,6.5408,6.5464,6.545,6.5484,6.5479,6.5485,6.5292,6.5261,6.5494,6.5494,6.5493,6.5493,6.5493,6.5493,6.4747,6.4869,6.4872,6.5012,6.5039,6.5134,6.5169,6.5214,6.5251,6.5365,6.543,6.5446,6.5483,6.5562,6.5632,6.5637,6.5666,6.5706,6.5704,6.5524,6.5499,6.5475,6.5446,6.5713,6.5713,6.589,6.5892,6.5893]},{"header":{"parameterUnit":"m.s-1","parameterCategory":1,"la1":30.2991,"la2":30.254,"lo1":-89.0895,"lo2":-89.0444,"dy":0.0017,"dx":0.0017,"nx":28,"ny":28,"refTime":"2025-03-14T21:00:00:Z","depth":0,"parameterNumber":3,"parameterNumberName":"V-component_of_WINDS"},"data":[0,0,0,0,0,0,0,0,0,0,0,0,0,0,0,0,0,0,0,0,0,0,0,0,0,0,0,0,0,0,0,0,0,0,0,0,0,0,0,0,0,0,0,0,0,0,0,0,0,0,0,0,0,0,0,0,0,0,4.5235,4.5237,0,4.5348,4.535,4.5351,4.5359,4.5358,4.5356,4.5355,4.547,4.5474,4.5478,0,0,0,0,0,0,0,0,0,0,0,0,0,4.5025,4.5029,4.5235,4.5237,4.5238,4.5348,4.535,4.5351,4.5359,4.5358,4.5356,4.5355,4.5469,4.5474,4.5479,0,0,0,0,0,0,0,0,0,0,0,0,0,4.5125,4.503,4.5235,4.5255,4.5258,4.5348,4.535,4.5352,4.5359,4.5358,4.5356,4.5354,4.5467,4.5473,4.5479,4.5556,0,0,4.5499,4.5502,0,0,0,0,0,0,0,0,4.512,4.5133,4.5251,4.5254,4.5258,4.5338,4.5318,4.542,4.536,4.5321,4.5355,4.5353,4.5427,4.5437,4.5462,4.5562,4.5567,4.5499,4.5503,4.5506,4.5508,0,0,0,0,0,0,0,4.5113,4.5128,4.528,4.5253,4.5257,4.5258,4.5271,4.5337,4.5383,4.5324,4.5325,4.5338,4.5429,4.5456,4.5465,4.5568,4.5499,4.5505,4.5509,4.5511,4.5736,4.5739,0,0,0,0,0,0,4.5102,4.5122,4.5276,4.5283,4.5183,4.5264,4.5277,4.5314,4.5383,4.5391,4.534,4.5338,4.5446,4.5458,4.5469,4.5564,4.5506,4.5512,4.5515,4.5734,4.5737,4.5739,0,0,0,0,0,0,4.5097,4.5116,4.5272,4.5203,4.5223,4.5269,4.531,4.5317,4.5344,4.5395,4.5403,4.5359,4.5445,4.546,4.5535,4.5568,4.5515,4.552,4.5732,4.5735,4.5738,4.5753,0,0,0,0,0,0,4.5091,4.5114,4.5144,4.5204,4.5227,4.5336,4.5312,4.5321,4.5355,4.5354,4.5415,4.5423,4.5445,4.5525,4.5541,4.5575,4.5525,4.5729,4.5733,4.5737,4.575,4.5757,4.5762,0,0,0,0,0,4.5084,4.5143,4.5145,4.5164,4.5265,4.5338,4.5351,4.5375,4.5358,4.5388,4.5421,4.5421,4.5562,4.5533,4.5551,4.5587,4.5727,4.5732,4.5737,4.5747,4.5755,4.5762,0,0,0,0,0,0,4.5086,4.5151,4.5154,4.5235,4.5281,4.5339,4.5378,4.5383,4.5434,4.5431,4.5458,4.5472,4.5545,4.5574,4.5541,4.5666,4.5642,4.5651,4.5644,4.5652,4.5658,4.565,4.5531,0,0,0,0,0,4.5095,4.5149,4.5204,4.527,4.5292,4.5331,4.5364,4.5378,4.5427,4.5446,4.5484,4.553,4.5585,4.562,4.5673,4.5754,4.5767,4.5788,4.5794,4.5799,4.5806,4.5851,4.5861,4.5755,4.5755,4.5755,0,0,4.5116,4.5159,4.5191,4.5271,4.5308,4.5363,4.5347,4.5406,4.5447,4.5455,4.5527,4.5557,4.561,4.5689,4.5725,4.5715,4.5839,4.5806,4.5809,4.5814,4.5857,4.5867,4.5876,4.5759,4.5758,4.5758,0,0,4.5182,4.522,4.5279,4.5316,4.5373,4.5398,4.5412,4.547,4.549,4.5564,4.5571,4.5619,4.5713,4.5751,4.5783,4.5863,4.5866,4.588,4.5912,4.5955,4.5963,4.5971,4.5999,4.6009,4.5887,4.5887,4.5887,0,4.52,4.5283,4.5308,4.5367,4.5402,4.5412,4.5472,4.5507,4.5578,4.5602,4.5589,4.5707,4.5744,4.5831,4.5851,4.5876,4.5893,4.5873,4.596,4.5968,4.5975,4.6003,4.6014,4.5888,4.5888,4.5888,4.5888,0,4.5303,4.536,4.5401,4.547,4.5509,4.5568,4.5602,4.5639,4.5651,4.5677,4.5752,4.5797,4.5859,4.5881,4.5892,4.597,4.5962,4.5955,4.5932,4.5986,4.6013,4.6023,4.589,4.5889,4.5889,4.5889,0,0,4.5372,4.5454,4.5469,4.55,4.5563,4.5608,4.5667,4.5729,4.576,4.5809,4.5859,4.5938,4.5932,4.5968,4.5984,4.6022,4.6083,4.601,4.6012,4.6022,4.6171,4.6175,4.6187,4.6085,4.6087,4.6089,4.6166,0,4.5444,4.555,4.5575,4.5666,4.5719,4.573,4.5782,4.5826,4.5853,4.5902,4.5931,4.5987,4.5975,4.5996,4.6035,4.6067,4.6113,4.6062,4.6132,4.6134,4.6118,4.6201,4.6206,4.6277,4.6177,4.6178,4.618,0,4.5543,4.5594,4.569,4.5747,4.577,4.5816,4.5875,4.5921,4.5972,4.5989,4.6029,4.6041,4.6103,4.6078,4.6164,4.6128,4.6159,4.6179,4.6182,4.6189,4.616,4.621,4.63,4.6311,4.6196,4.6195,4.6194,0,4.5583,4.5676,4.5746,4.5772,4.584,4.5872,4.5902,4.5951,4.5986,4.6037,4.606,4.6118,4.6149,4.6193,4.6221,4.62,4.6304,4.6281,4.632,4.6319,4.6341,4.6339,4.6436,4.6361,4.6361,4.636,4.636,0,4.566,4.5719,4.5765,4.5807,4.5873,4.5901,4.5965,4.5995,4.6039,4.6087,4.6101,4.6146,4.6179,4.623,4.6251,4.6319,4.6333,4.6348,4.6353,4.6347,4.6345,4.6367,4.6362,4.6363,4.6363,4.6362,4.6362,0,4.5716,4.5749,4.5826,4.5884,4.59,4.5946,4.5996,4.6038,4.6065,4.6127,4.6143,4.6185,4.6245,4.6277,4.6352,4.6366,4.6442,4.6445,4.6425,4.6427,4.6464,4.646,4.6578,4.6595,4.6509,4.6509,4.651,0,4.5763,4.5808,4.5872,4.5905,4.5936,4.599,4.6026,4.6056,4.6093,4.6155,4.6189,4.625,4.6299,4.6394,4.6432,4.6489,4.6493,4.6531,4.6501,4.6494,4.6493,4.649,4.6494,4.6535,4.6536,4.6537,4.6537,0,4.5843,4.5857,4.5909,4.5967,4.601,4.6058,4.6104,4.6131,4.6168,4.6209,4.6271,4.6309,4.6386,4.6446,4.6506,4.6536,4.6543,4.6546,4.6558,4.6552,4.6539,4.6546,4.6438,4.6543,4.6543,4.6542,4.6542,4.6542,4.5895,4.5936,4.5987,4.6045,4.6083,4.6126,4.6169,4.6202,4.6254,4.6318,4.6333,4.6397,4.6447,4.6529,4.6562,4.6613,4.6605,4.6622,4.6627,4.663,4.6632,4.6531,4.6624,4.6624,4.6623,4.6623,4.6623,0,4.5975,4.6009,4.6062,4.6127,4.6172,4.6175,4.6227,4.6265,4.6322,4.6368,4.6417,4.6488,4.6546,4.6589,4.6648,4.6681,4.6686,4.6696,4.6693,4.67,4.6635,4.6619,4.6691,4.6691,4.6691,4.6691,4.6691,4.6691,4.6022,4.6091,4.6112,4.62,4.6234,4.6297,4.6327,4.6367,4.6404,4.6482,4.6531,4.6559,4.6604,4.6667,4.6721,4.6732,4.6753,4.6763,4.6774,4.6712,4.6705,4.6698,4.6683,4.6767,4.6767,4.6835,4.6835,4.6836]}]]